TimeEDT,TemperatureF,Dew PointF,Humidity,Sea Level PressureIn,VisibilityMPH,Wind Direction,Wind SpeedMPH,Gust SpeedMPH,PrecipitationIn,Events,Conditions,WindDirDegrees,DateUTC
12:53 AM,37.9,30.9,76,30.26,10.0,ESE,3.5,-,N/A,,Clear,110,2013-04-26 04:53:00
1:53 AM,37.9,30.0,73,30.26,10.0,Calm,Calm,-,N/A,,Clear,0,2013-04-26 05:53:00
2:53 AM,36.0,30.0,79,30.26,10.0,Calm,Calm,-,N/A,,Clear,0,2013-04-26 06:53:00
3:53 AM,35.1,30.0,82,30.28,10.0,East,3.5,-,N/A,,Clear,90,2013-04-26 07:53:00
4:53 AM,35.1,30.0,82,30.30,10.0,Calm,Calm,-,N/A,,Clear,0,2013-04-26 08:53:00
5:53 AM,34.0,30.0,85,30.32,10.0,Calm,Calm,-,N/A,,Clear,0,2013-04-26 09:53:00
6:53 AM,35.1,30.0,82,30.35,7.0,Calm,Calm,-,N/A,,Clear,0,2013-04-26 10:53:00
7:53 AM,43.0,34.0,71,30.38,10.0,North,5.8,-,N/A,,Clear,10,2013-04-26 11:53:00
8:53 AM,48.9,33.1,54,30.39,10.0,North,6.9,-,N/A,,Clear,350,2013-04-26 12:53:00
9:53 AM,53.1,33.1,47,30.39,10.0,Variable,5.8,-,N/A,,Clear,0,2013-04-26 13:53:00
10:53 AM,55.9,36.0,47,30.39,10.0,NNE,8.1,-,N/A,,Clear,30,2013-04-26 14:53:00
11:53 AM,55.9,35.1,45,30.38,10.0,Calm,Calm,-,N/A,,Clear,0,2013-04-26 15:53:00
12:53 PM,59.0,35.1,41,30.37,10.0,West,8.1,-,N/A,,Clear,280,2013-04-26 16:53:00
1:53 PM,61.0,33.1,35,30.35,10.0,Variable,4.6,-,N/A,,Clear,0,2013-04-26 17:53:00
2:53 PM,62.1,33.1,34,30.34,10.0,Variable,3.5,-,N/A,,Partly Cloudy,0,2013-04-26 18:53:00
3:53 PM,63.0,32.0,31,30.33,10.0,Variable,3.5,-,N/A,,Mostly Cloudy,0,2013-04-26 19:53:00
4:53 PM,63.0,32.0,31,30.33,10.0,North,8.1,-,N/A,,Clear,10,2013-04-26 20:53:00
5:53 PM,63.0,32.0,31,30.34,10.0,North,6.9,-,N/A,,Clear,360,2013-04-26 21:53:00
6:53 PM,59.0,30.9,35,30.35,10.0,NNE,8.1,-,N/A,,Clear,20,2013-04-26 22:53:00
7:53 PM,55.9,30.0,37,30.37,10.0,North,8.1,-,N/A,,Clear,10,2013-04-26 23:53:00
8:53 PM,53.1,30.0,41,30.39,10.0,North,8.1,-,N/A,,Clear,10,2013-04-27 00:53:00
9:53 PM,51.1,28.0,41,30.41,10.0,North,5.8,-,N/A,,Clear,10,2013-04-27 01:53:00
10:53 PM,50.0,27.0,41,30.41,10.0,NNE,3.5,-,N/A,,Clear,20,2013-04-27 02:53:00
11:53 PM,48.9,27.0,43,30.42,10.0,North,4.6,-,N/A,,Clear,10,2013-04-27 03:53:00